Deering, AK

10:01 PM AKDT on April 23, 2017 (GMT -0800)
Deering (New)

Weather History for PADE - March, 2014

Change the Weather History Date:

Thursday, March 20, 2014

  Actual Average (PAOT) Record (PAOT)
Temperature  
Mean Temperature 5 °F -  
Max Temperature 17 °F 8 °F 37 °F (1998)
Min Temperature -6 °F -8 °F -36 °F (1975)
Degree Days  
Heating Degree Days 60    
Moisture  
Dew Point -3 °F    
Average Humidity 70    
Maximum Humidity 76    
Minimum Humidity 62    
Precipitation  
Precipitation 0.00 in - - ()
Sea Level Pressure  
Sea Level Pressure 30.57 in    
Wind  
Wind Speed 5 mph (ENE)    
Max Wind Speed 9 mph    
Max Gust Speed -    
Visibility 10 miles    
Events      
Averages and records for this station are not official NWS values.
T = Trace of Precipitation, MM = Missing Value Source: NWS Daily Summary

Daily Weather History Graph

Daily Weather History Graph

Search for Another Location

Airport or City:

Trip Planner

Search our weather history database for the weather conditions in past years. The results will help you decide how hot, cold, wet, or windy it might be!

Date:

Astronomy

Mar. 20, 2014 Rise Set
Actual Time 8:50 AM AKDT 9:08 PM AKDT
Civil Twilight 7:58 AM AKDT 10:00 PM AKDT
Nautical Twilight 6:55 AM AKDT 11:04 PM AKDT
Astronomical Twilight 5:40 AM AKDT 12:20 AM AKDT
Moon 2:12 AM AKDT (3/20) 9:24 AM AKDT (3/20)
Length of Visible Light 14h 01m
Length of Day
12h 18m
Waning Gibbous, 83% of the Moon is Illuminated
Mar 20
Waning Gibbous
Mar 23
Last Quarter
Mar 30
New
Apr 7
First Quarter
Apr 14
Full

Hourly Weather History & Observations

Time (AKDT) Temp. Windchill Dew Point Humidity Pressure Visibility Wind Dir Wind Speed Gust Speed Precip Events Conditions
12:53 AM -0.0 °F -13.0 °F -7.1 °F 72% 30.58 in 10.0 mi ENE 6.9 mph - N/A   Clear
1:53 AM -5.1 °F -17.6 °F -11.0 °F 76% 30.59 in 10.0 mi NNE 5.8 mph - N/A   Clear
2:53 AM -2.9 °F - -9.0 °F 75% 30.57 in 10.0 mi Calm Calm - N/A   Clear
3:53 AM -2.0 °F -12.2 °F -9.0 °F 72% 30.58 in 10.0 mi ENE 4.6 mph - N/A   Clear
4:53 AM -5.1 °F - -11.0 °F 76% 30.58 in 10.0 mi Calm Calm - N/A   Clear
5:53 AM 1.0 °F -6.7 °F -7.1 °F 69% 30.56 in 10.0 mi East 3.5 mph - N/A   Clear
6:53 AM -5.1 °F -13.6 °F -11.0 °F 76% 30.56 in 10.0 mi North 3.5 mph - N/A   Clear
7:53 AM -6.0 °F -16.9 °F -11.9 °F 75% 30.57 in 10.0 mi NNE 4.6 mph - N/A   Clear
8:53 AM -4.0 °F - -11.0 °F 72% 30.56 in 10.0 mi Calm Calm - N/A   Clear
9:53 AM -5.1 °F -15.8 °F -11.9 °F 72% 30.56 in 10.0 mi NNE 4.6 mph - N/A   Clear
10:53 AM -0.0 °F -7.9 °F -7.1 °F 72% 30.56 in 10.0 mi ENE 3.5 mph - N/A   Clear
11:53 AM 8.1 °F -0.5 °F -2.0 °F 64% 30.56 in 10.0 mi ESE 4.6 mph - N/A   Clear
12:53 PM 3.9 °F -5.3 °F -4.0 °F 70% 30.56 in 10.0 mi North 4.6 mph - N/A   Clear
1:53 PM 7.0 °F -5.7 °F -0.9 °F 70% 30.56 in 10.0 mi NE 8.1 mph - N/A   Clear
2:53 PM 16.0 °F 6.3 °F 5.0 °F 62% 30.56 in 10.0 mi ESE 6.9 mph - N/A   Clear
3:53 PM 14.0 °F 5.1 °F 3.9 °F 64% 30.56 in 10.0 mi ENE 5.8 mph - N/A   Clear
4:53 PM 14.0 °F 2.0 °F 3.9 °F 64% 30.56 in 10.0 mi East 9.2 mph - N/A   Clear
5:53 PM 16.0 °F 7.4 °F 5.0 °F 62% 30.56 in 10.0 mi ENE 5.8 mph - N/A   Clear
6:53 PM 15.1 °F 3.3 °F 5.0 °F 64% 30.56 in 10.0 mi ENE 9.2 mph - N/A   Clear
7:53 PM 16.0 °F 7.4 °F 5.0 °F 62% 30.56 in 10.0 mi Variable 5.8 mph - N/A   Clear
8:53 PM 10.0 °F -2.9 °F 1.9 °F 70% 30.56 in 10.0 mi NE 9.2 mph - N/A   Clear
9:53 PM 8.1 °F -4.3 °F 1.9 °F 76% 30.58 in 10.0 mi NE 8.1 mph - N/A   Clear
10:53 PM 8.1 °F - 1.0 °F 73% 30.57 in 10.0 mi Calm Calm - N/A   Clear
11:53 PM 12.0 °F - 1.9 °F 64% 30.58 in 10.0 mi Calm Calm - N/A   Clear